Location: Le Castellard
(44.1862°N, 6.1301°E)
Time: 21:25:55
(UTC+00:00)

Cosmos 1953 - Pass Details

Date: 18 January 2020
Orbit: 539 x 558 km, 82.5° (Epoch: 16 February)

Event Time Altitude Azimuth Distance (km) Brightness Sun altitude
Rises 05:17:38 0° 187° (S) 2,715 5.9 -19.1°
Reaches altitude 10° 05:19:47 10° 188° (S) 1,829 5.0 -18.7°
Maximum altitude 05:23:48 88° 273° (W) 563 2.2 -18.0°
Drops below altitude 10° 05:27:54 10° 8° (N) 1,852 5.0 -17.3°
Sets 05:30:05 0° 9° (N) 2,754 5.9 -16.9°
